When you browse on this site, cookies collect data to enhance your experience and personalize the content and advertising you see.
Visit our Privacy Policy to learn more. By continuing to use the site, you agree to this use of cookies and data.
  • In United Kingdom
  • List of Countries
  • For 7 days
  • Water Temperature
  • Satellite Maps
  • Weather Map
  • Weather Widgets
  • user-avatar
    Login

    Hourly Weather Eger

    Today, 16 June, Sunday

    Time Temperature Precipitation Wind Pressure Humidity
    00:00 +21°C° 0 mm 0 mps 743 mmHg 82%
    01:00 +21°C° 0 mm 0 mps 743 mmHg 83%
    02:00 +21°C° 0 mm 0 mps 743 mmHg 83%
    03:00 +21°C° 0 mm 0 mps 743 mmHg 84%
    04:00 +20°C° 0 mm 0 mps 742 mmHg 84%
    05:00 +22°C° 0 mm 0 mps 743 mmHg 81%
    06:00 +24°C° 0 mm 0 mps 743 mmHg 77%
    07:00 +27°C° 0 mm 1 mps 743 mmHg 74%
    08:00 +28°C° 0.2 mm 1 mps 743 mmHg 72%
    09:00 +29°C° 0.2 mm 1 mps 743 mmHg 70%
    10:00 +30°C° 0.2 mm 1 mps 743 mmHg 67%
    11:00 +31°C° 0.9 mm 1 mps 743 mmHg 62%
    12:00 +32°C° 0.9 mm 1 mps 743 mmHg 57%
    13:00 +31°C° 0.9 mm 0 mps 744 mmHg 52%
    14:00 +30°C° 0 mm 0 mps 743 mmHg 51%
    15:00 +30°C° 0 mm 0 mps 743 mmHg 51%
    16:00 +30°C° 0 mm 0 mps 742 mmHg 50%
    17:00 +30°C° 0.7 mm 1 mps 743 mmHg 60%
    18:00 +28°C° 0.7 mm 2 mps 743 mmHg 69%
    19:00 +26°C° 0.7 mm 2 mps 743 mmHg 78%
    20:00 +25°C° 1.4 mm 3 mps 743 mmHg 81%
    21:00 +22°C° 1.4 mm 3 mps 743 mmHg 85%
    22:00 +21°C° 1.4 mm 4 mps 744 mmHg 88%
    23:00 +21°C° 0.5 mm 4 mps 744 mmHg 88%

    Tomorrow, 17 June, Monday

    Time Temperature Precipitation Wind Pressure Humidity
    00:00 +20°C° 0.5 mm 4 mps 744 mmHg 88%
    01:00 +19°C° 0.5 mm 3 mps 744 mmHg 88%
    02:00 +19°C° 0.4 mm 3 mps 744 mmHg 89%
    03:00 +19°C° 0.4 mm 3 mps 744 mmHg 90%
    04:00 +18°C° 0.4 mm 4 mps 744 mmHg 90%
    05:00 +19°C° 0.2 mm 4 mps 744 mmHg 87%
    06:00 +20°C° 0.2 mm 4 mps 745 mmHg 84%
    07:00 +21°C° 0.2 mm 4 mps 745 mmHg 81%
    08:00 +22°C° 0.1 mm 5 mps 745 mmHg 75%
    09:00 +23°C° 0.1 mm 5 mps 745 mmHg 70%
    10:00 +25°C° 0.1 mm 5 mps 745 mmHg 64%
    11:00 +26°C° 0.2 mm 5 mps 745 mmHg 64%
    12:00 +26°C° 0.2 mm 5 mps 745 mmHg 63%
    13:00 +27°C° 0.2 mm 5 mps 745 mmHg 63%
    14:00 +27°C° 0.3 mm 4 mps 744 mmHg 65%
    15:00 +27°C° 0.3 mm 4 mps 744 mmHg 67%
    16:00 +27°C° 0.3 mm 4 mps 744 mmHg 69%
    17:00 +25°C° 0.9 mm 4 mps 744 mmHg 75%
    18:00 +22°C° 0.9 mm 3 mps 744 mmHg 81%
    19:00 +21°C° 0.9 mm 3 mps 744 mmHg 87%
    20:00 +20°C° 0.2 mm 4 mps 744 mmHg 86%
    21:00 +20°C° 0.2 mm 4 mps 745 mmHg 85%
    22:00 +19°C° 0.2 mm 4 mps 745 mmHg 84%
    23:00 +19°C° 0 mm 3 mps 745 mmHg 84%

    Day after tomorrow, 18 June, Tuesday

    Time Temperature Precipitation Wind Pressure Humidity
    00:00 +19°C° 0 mm 3 mps 745 mmHg 84%
    01:00 +18°C° 0 mm 2 mps 744 mmHg 84%
    02:00 +18°C° 0 mm 2 mps 744 mmHg 86%
    03:00 +18°C° 0 mm 2 mps 744 mmHg 88%
    04:00 +18°C° 0 mm 2 mps 744 mmHg 90%
    05:00 +19°C° 0 mm 2 mps 745 mmHg 86%
    06:00 +20°C° 0 mm 2 mps 745 mmHg 82%
    07:00 +23°C° 0 mm 2 mps 745 mmHg 78%
    08:00 +24°C° 0 mm 3 mps 745 mmHg 75%
    09:00 +25°C° 0 mm 3 mps 745 mmHg 72%
    10:00 +26°C° 0 mm 3 mps 745 mmHg 69%
    11:00 +27°C° 0.4 mm 3 mps 745 mmHg 68%
    12:00 +28°C° 0.4 mm 3 mps 744 mmHg 67%
    13:00 +28°C° 0.4 mm 3 mps 744 mmHg 66%
    14:00 +28°C° 1.1 mm 2 mps 744 mmHg 69%
    15:00 +28°C° 1.1 mm 2 mps 743 mmHg 73%
    16:00 +28°C° 1.1 mm 1 mps 743 mmHg 76%
    17:00 +26°C° 0.8 mm 1 mps 743 mmHg 80%
    18:00 +25°C° 0.8 mm 1 mps 743 mmHg 83%
    19:00 +24°C° 0.8 mm 1 mps 743 mmHg 86%
    20:00 +23°C° 0.1 mm 1 mps 743 mmHg 87%
    21:00 +23°C° 0.1 mm 1 mps 743 mmHg 88%
    22:00 +22°C° 0.1 mm 1 mps 744 mmHg 89%
    23:00 +22°C° 0.1 mm 1 mps 743 mmHg 89%

    19 June, Wednesday

    Time Temperature Precipitation Wind Pressure Humidity
    00:00 +21°C° 0.1 mm 1 mps 743 mmHg 89%
    01:00 +21°C° 0.1 mm 1 mps 743 mmHg 89%
    02:00 +21°C° 0.5 mm 1 mps 743 mmHg 89%
    03:00 +21°C° 0.5 mm 1 mps 743 mmHg 90%
    04:00 +21°C° 0.5 mm 1 mps 743 mmHg 90%
    05:00 +22°C° 0.3 mm 1 mps 743 mmHg 88%
    06:00 +23°C° 0.3 mm 1 mps 743 mmHg 87%
    07:00 +24°C° 0.3 mm 1 mps 743 mmHg 85%
    08:00 +25°C° 1.4 mm 1 mps 743 mmHg 81%
    09:00 +26°C° 1.4 mm 1 mps 743 mmHg 77%
    10:00 +27°C° 1.4 mm 1 mps 743 mmHg 74%
    11:00 +28°C° 0.1 mm 1 mps 743 mmHg 69%
    12:00 +29°C° 0.1 mm 2 mps 743 mmHg 64%
    13:00 +30°C° 0.1 mm 2 mps 743 mmHg 59%
    14:00 +29°C° 0.5 mm 2 mps 742 mmHg 62%
    15:00 +29°C° 0.5 mm 2 mps 742 mmHg 66%
    16:00 +29°C° 0.5 mm 2 mps 742 mmHg 69%
    17:00 +27°C° 0.4 mm 2 mps 742 mmHg 74%
    18:00 +26°C° 0.4 mm 1 mps 741 mmHg 79%
    19:00 +25°C° 0.4 mm 1 mps 741 mmHg 84%
    20:00 +22°C° 0 mm 0 mps 741 mmHg 85%
    21:00 +21°C° 0 mm 0 mps 742 mmHg 86%
    22:00 +20°C° 0 mm 0 mps 742 mmHg 88%
    23:00 +20°C° 0.1 mm 0 mps 742 mmHg 88%

    20 June, Thursday

    Time Temperature Precipitation Wind Pressure Humidity
    00:00 +20°C° 0.1 mm 0 mps 741 mmHg 89%
    01:00 +20°C° 0.1 mm 0 mps 741 mmHg 89%
    02:00 +19°C° 0 mm 0 mps 741 mmHg 90%
    03:00 +19°C° 0 mm 0 mps 742 mmHg 91%
    04:00 +19°C° 0 mm 0 mps 742 mmHg 92%
    05:00 +20°C° 0.2 mm 0 mps 742 mmHg 90%
    06:00 +23°C° 0.2 mm 1 mps 742 mmHg 89%
    07:00 +25°C° 0.2 mm 1 mps 742 mmHg 87%
    08:00 +26°C° 0.5 mm 1 mps 743 mmHg 80%
    09:00 +27°C° 0.5 mm 1 mps 743 mmHg 73%
    10:00 +28°C° 0.5 mm 2 mps 743 mmHg 66%
    11:00 +29°C° 0.1 mm 2 mps 743 mmHg 63%
    12:00 +29°C° 0.1 mm 2 mps 742 mmHg 60%
    13:00 +30°C° 0.1 mm 2 mps 742 mmHg 56%
    14:00 +30°C° 0.6 mm 2 mps 742 mmHg 60%
    15:00 +29°C° 0.6 mm 2 mps 742 mmHg 63%
    16:00 +29°C° 0.6 mm 2 mps 742 mmHg 67%
    17:00 +28°C° 0.3 mm 1 mps 742 mmHg 71%
    18:00 +26°C° 0.3 mm 1 mps 742 mmHg 75%
    19:00 +23°C° 0.3 mm 0 mps 742 mmHg 79%
    20:00 +22°C° 0.2 mm 0 mps 742 mmHg 80%
    21:00 +21°C° 0.2 mm 0 mps 743 mmHg 80%
    22:00 +20°C° 0.2 mm 0 mps 743 mmHg 81%
    23:00 +20°C° 0.1 mm 0 mps 743 mmHg 82%

    21 June, Friday

    Time Temperature Precipitation Wind Pressure Humidity
    00:00 +20°C° 0.1 mm 0 mps 743 mmHg 82%
    01:00 +19°C° 0.1 mm 0 mps 743 mmHg 83%
    02:00 +19°C° 0.1 mm 0 mps 743 mmHg 85%
    03:00 +19°C° 0.1 mm 0 mps 743 mmHg 87%
    04:00 +20°C° 0.1 mm 1 mps 743 mmHg 89%
    05:00 +22°C° 0.3 mm 1 mps 744 mmHg 87%
    06:00 +23°C° 0.3 mm 1 mps 744 mmHg 85%
    07:00 +24°C° 0.3 mm 1 mps 744 mmHg 83%
    08:00 +26°C° 0.7 mm 1 mps 744 mmHg 78%
    09:00 +27°C° 0.7 mm 1 mps 744 mmHg 72%
    10:00 +29°C° 0.7 mm 1 mps 744 mmHg 67%
    11:00 +29°C° 0.1 mm 1 mps 744 mmHg 62%
    12:00 +30°C° 0.1 mm 1 mps 744 mmHg 58%
    13:00 +30°C° 0.1 mm 2 mps 744 mmHg 54%
    14:00 +30°C° 0.1 mm 2 mps 744 mmHg 55%
    15:00 +30°C° 0.1 mm 2 mps 743 mmHg 57%
    16:00 +30°C° 0.1 mm 2 mps 743 mmHg 58%
    17:00 +29°C° 0 mm 1 mps 743 mmHg 64%
    18:00 +27°C° 0 mm 1 mps 743 mmHg 70%
    19:00 +26°C° 0 mm 1 mps 743 mmHg 75%
    20:00 +25°C° 0 mm 1 mps 743 mmHg 76%
    21:00 +22°C° 0 mm 0 mps 743 mmHg 78%
    22:00 +21°C° 0 mm 0 mps 743 mmHg 79%
    23:00 +21°C° 0 mm 0 mps 743 mmHg 81%
    Show more